Beatrice, NE

4:19 PM CST on December 15, 2017 (GMT -0600)
Beatrice Municipal

Weather History for KBIE - January, 2000

Change the Weather History Date:

Tuesday, January 18, 2000

  Actual Average Record
Temperature  
Mean Temperature 37 °F -  
Max Temperature 51 °F 33 °F 60 °F (2006)
Min Temperature 23 °F 15 °F -13 °F (2016)
Degree Days  
Heating Degree Days 28    
Moisture  
Dew Point 25 °F    
Average Humidity 64    
Maximum Humidity 93    
Minimum Humidity 37    
Precipitation  
Precipitation 0.00 in - - ()
Sea Level Pressure  
Sea Level Pressure 30.19 in    
Wind  
Wind Speed 2 mph (East)    
Max Wind Speed 8 mph    
Max Gust Speed -    
Visibility 8 miles    
Events      
Averages and records for this station are not official NWS values.
T = Trace of Precipitation, MM = Missing Value Source: NWS Daily Summary

Daily Weather History Graph

Daily Weather History Graph

Search for Another Location

Airport or City:

Trip Planner

Search our weather history database for the weather conditions in past years. The results will help you decide how hot, cold, wet, or windy it might be!

Date:

Astronomy

Jan. 18, 2000 Rise Set
Actual Time 7:46 AM CST 5:28 PM CST
Civil Twilight 7:16 AM CST 5:58 PM CST
Nautical Twilight 6:43 AM CST 6:31 PM CST
Astronomical Twilight 6:11 AM CST 7:03 PM CST
Moon 3:07 PM CST (1/18) 5:02 AM CST (1/18)
Length of Visible Light 10h 41m
Length of Day
9h 41m
Waxing Gibbous, 91% of the Moon is Illuminated
Jan 18
Waxing Gibbous
Jan 20
Full
Jan 28
Last Quarter
Feb 5
New
Feb 12
First Quarter

Hourly Weather History & Observations

Time (CST) Temp. Windchill Dew Point Humidity Pressure Visibility Wind Dir Wind Speed Gust Speed Precip Events Conditions
12:11 AM 23.0 °F - 19.4 °F 86% 30.19 in 5.0 mi Calm Calm - N/A   Clear
12:33 AM 24.8 °F 20.5 °F 19.4 °F 80% 30.17 in 4.0 mi ENE 3.5 mph - N/A   Clear
1:30 AM 24.8 °F - 21.2 °F 86% 30.17 in 5.0 mi Calm Calm - N/A   Clear
1:49 AM 24.8 °F - 21.2 °F 86% 30.17 in 5.0 mi Calm Calm - N/A   Clear
2:10 AM 24.8 °F - 19.4 °F 80% 30.19 in 5.0 mi Calm Calm - N/A   Clear
2:32 AM 24.8 °F 19.1 °F 21.2 °F 86% 30.20 in 5.0 mi NW 4.6 mph - N/A   Clear
2:54 AM 26.6 °F - 21.2 °F 80% 30.20 in 5.0 mi Calm Calm - N/A   Clear
3:09 AM 26.6 °F 21.2 °F 21.2 °F 80% 30.19 in 5.0 mi East 4.6 mph - N/A   Clear
3:30 AM 26.6 °F - 23.0 °F 86% 30.17 in 5.0 mi Calm Calm - N/A   Clear
3:52 AM 26.6 °F - 24.8 °F 93% 30.18 in 5.0 mi Calm Calm - N/A   Scattered Clouds
4:09 AM 26.6 °F - 21.2 °F 80% 30.18 in 5.0 mi Calm Calm - N/A   Scattered Clouds
4:32 AM 26.6 °F - 21.2 °F 80% 30.20 in 5.0 mi Calm Calm - N/A   Clear
4:49 AM 26.6 °F - 21.2 °F 80% 30.18 in 5.0 mi Calm Calm - N/A   Clear
5:29 AM 26.6 °F - 24.8 °F 93% 30.18 in 5.0 mi Calm Calm - N/A   Clear
6:10 AM 26.6 °F - 23.0 °F 86% 30.17 in 5.0 mi Calm Calm - N/A   Clear
6:32 AM 26.6 °F 21.2 °F 23.0 °F 86% 30.17 in 5.0 mi NE 4.6 mph - N/A   Mostly Cloudy
6:49 AM 24.8 °F 19.1 °F 21.2 °F 86% 30.19 in 5.0 mi North 4.6 mph - N/A   Scattered Clouds
7:12 AM 24.8 °F - 19.4 °F 80% 30.21 in 4.0 mi Calm Calm - N/A   Scattered Clouds
7:50 AM 26.6 °F - 23.0 °F 86% 30.23 in 3.5 mi Calm Calm - N/A   Clear
8:09 AM 26.6 °F - 23.0 °F 86% 30.23 in 3.5 mi Calm Calm - N/A   Clear
8:50 AM 28.4 °F - 24.8 °F 86% 30.25 in 3.5 mi Calm Calm - N/A   Scattered Clouds
9:09 AM 28.4 °F 23.3 °F 24.8 °F 86% 30.25 in 4.0 mi WSW 4.6 mph - N/A   Scattered Clouds
9:51 AM 32.0 °F - 26.6 °F 80% 30.27 in 5.0 mi Calm Calm - N/A   Scattered Clouds
10:12 AM 33.8 °F - 26.6 °F 75% 30.27 in 7.0 mi Calm Calm - N/A   Scattered Clouds
10:31 AM 35.6 °F - 28.4 °F 75% 30.28 in 7.0 mi Calm Calm - N/A   Scattered Clouds
11:11 AM 37.4 °F 33.8 °F 28.4 °F 70% 30.27 in 10.0 mi NNW 4.6 mph - N/A   Scattered Clouds
11:34 AM 39.2 °F - 28.4 °F 65% 30.25 in 10.0 mi Calm Calm - N/A   Clear
12:30 PM 48.2 °F - 28.4 °F 46% 30.24 in 10.0 mi NE 4.6 mph - N/A   Clear
1:11 PM 48.2 °F - 28.4 °F 46% 30.23 in 10.0 mi NE 3.5 mph - N/A   Clear
1:34 PM 50.0 °F - 26.6 °F 40% 30.21 in 10.0 mi ENE 5.8 mph - N/A   Clear
1:50 PM 50.0 °F - 26.6 °F 40% 30.21 in 10.0 mi NNE 4.6 mph - N/A   Clear
2:11 PM 50.0 °F - 26.6 °F 40% 30.20 in 10.0 mi NE 4.6 mph - N/A   Clear
2:30 PM 51.8 °F - 28.4 °F 41% 30.19 in 10.0 mi NE 5.8 mph - N/A   Clear
2:51 PM 51.8 °F - 26.6 °F 38% 30.19 in 10.0 mi East 4.6 mph - N/A   Clear
3:10 PM 51.8 °F - 26.6 °F 38% 30.19 in 10.0 mi ENE 6.9 mph - N/A   Clear
3:31 PM 51.8 °F - 26.6 °F 38% 30.19 in 10.0 mi East 8.1 mph - N/A   Clear
3:54 PM 51.8 °F - 26.6 °F 38% 30.19 in 10.0 mi ENE 5.8 mph - N/A   Clear
4:10 PM 51.8 °F - 26.6 °F 38% 30.19 in 10.0 mi ENE 5.8 mph - N/A   Clear
4:30 PM 50.0 °F - 24.8 °F 37% 30.20 in 10.0 mi ENE 4.6 mph - N/A   Clear
4:52 PM 48.2 °F - 26.6 °F 43% 30.19 in 10.0 mi ENE 4.6 mph - N/A   Clear
5:14 PM 46.4 °F 44.3 °F 24.8 °F 43% 30.19 in 10.0 mi East 4.6 mph - N/A   Clear
5:32 PM 44.6 °F 42.2 °F 24.8 °F 46% 30.19 in 10.0 mi East 4.6 mph - N/A   Clear
5:50 PM 44.6 °F 43.1 °F 24.8 °F 46% 30.19 in 10.0 mi ENE 3.5 mph - N/A   Clear
6:15 PM 42.8 °F 40.1 °F 23.0 °F 46% 30.19 in 10.0 mi East 4.6 mph - N/A   Clear
6:30 PM 42.8 °F 40.1 °F 24.8 °F 49% 30.20 in 10.0 mi ESE 4.6 mph - N/A   Clear
6:52 PM 42.8 °F 39.3 °F 24.8 °F 49% 30.19 in 10.0 mi East 5.8 mph - N/A   Clear
7:30 PM 39.2 °F 35.9 °F 24.8 °F 56% 30.18 in 10.0 mi SE 4.6 mph - N/A   Clear
8:11 PM 39.2 °F 34.2 °F 24.8 °F 56% 30.17 in 10.0 mi SE 6.9 mph - N/A   Clear
8:30 PM 41.0 °F 36.4 °F 26.6 °F 57% 30.16 in 10.0 mi SE 6.9 mph - N/A   Clear
8:51 PM 39.2 °F 35.0 °F 24.8 °F 56% 30.16 in 10.0 mi East 5.8 mph - N/A   Clear
9:10 PM 37.4 °F 32.8 °F 24.8 °F 60% 30.15 in 10.0 mi ESE 5.8 mph - N/A   Clear
9:33 PM 37.4 °F 33.8 °F 24.8 °F 60% 30.15 in 10.0 mi ESE 4.6 mph - N/A   Clear
9:53 PM 37.4 °F 32.8 °F 24.8 °F 60% 30.14 in 10.0 mi ESE 5.8 mph - N/A   Clear
10:33 PM 39.2 °F 34.2 °F 26.6 °F 61% 30.13 in 10.0 mi SSE 6.9 mph - N/A   Clear
10:50 PM 39.2 °F 34.2 °F 26.6 °F 61% 30.11 in 10.0 mi SE 6.9 mph - N/A   Clear
11:11 PM 39.2 °F 33.6 °F 26.6 °F 61% 30.10 in 10.0 mi SSE 8.1 mph - N/A   Clear
11:31 PM 39.2 °F 34.2 °F 26.6 °F 61% 30.09 in 10.0 mi SE 6.9 mph - N/A   Clear